Location: Meanaryar
(48.4161°N, 4.7315°W)
Time: 16:35:09
(UTC+00:00)

Meteor 1-22 Rocket - Pass Details

Date: 18 September 2020
Orbit: 786 x 941 km, 81.2° (Epoch: 30 October)

Event Time Altitude Azimuth Distance (km) Brightness Sun altitude
Exits shadow 20:43:06 49° 116° (ESE) 1,156 4.4 -22.7°
Maximum altitude 20:43:45 51° 94° (E) 1,129 4.4 -22.8°
Drops below altitude 10° 20:49:33 10° 20° (NNE) 2,638 6.9 -23.6°
Sets 20:52:08 0° 16° (NNE) 3,599 7.7 -24.0°
